Location: Cz?stochówka
(50.8142°N, 19.0915°E)
Time: 08:41:36
(UTC+00:00)

Lacrosse 5 rocket - Pass Details

Date: 13 January 2026
Orbit: 400 x 481 km, 57.0° (Epoch: 17 February)

Event Time Altitude Azimuth Distance (km) Brightness Sun altitude
Exits shadow 03:48:57 27° 42° (NE) 973 2.9 -26.4°
Drops below altitude 10° 03:50:54 10° 55° (NE) 1,688 4.4 -26.1°
Sets 03:53:07 0° 61° (ENE) 2,573 5.6 -25.7°
